Hourly Data Report for June 29, 2019

TORONTO CITY
ONTARIO
Current Station Operator: ECCC - MSC

43°40'00.000" N
79°24'00.000" W
112.50 m
6158355
71508
XTO

Download Data

Hourly Data (June 2019)
Hourly Data Report for June 29, 2019
TIME
LST
Temp Definition
°C
Dew Point Definition
°C
Rel Hum Definition
%
Precip. Amount Definition
mm

Wind Dir Definition
10's deg

Wind Spd Definition
km/h
Visibility Definition
km
Stn Press Definition
kPa
Hmdx Definition


Wind Chill Definition


Weather Definition


00:00 21.0 18.8 88 0.2       100.47 28   LegendNANA
01:00 20.9 19.2 90 11.9       100.43 28   LegendNANA
02:00 21.1 19.4 90 0.0       100.36 28   LegendNANA
03:00 20.7 18.6 88 0.0       100.36 27   LegendNANA
04:00 19.8 17.8 89 0.0       100.32     LegendNANA
05:00 19.5 17.7 90 0.0       100.33     LegendNANA
06:00 20.2 18.5 90 0.0       100.34 27   LegendNANA
07:00 22.0 19.1 84 0.2       100.36 29   LegendNANA
08:00 23.2 17.5 71 0.0       100.40 29   LegendNANA
09:00 24.0 17.7 68 0.0       100.36 30   LegendNANA
10:00 25.2 16.9 60 0.0       100.33 30   LegendNANA
11:00 25.8 17.8 61 0.0       100.32 32   LegendNANA
12:00 25.1 17.9 65 0.0       100.28 31   LegendNANA
13:00 26.1 17.9 60 0.0       100.21 32   LegendNANA
14:00 27.1 17.2 55 0.0       100.11 33   LegendNANA
15:00 27.4 17.7 55 0.0       100.04 33   LegendNANA
16:00 27.6 16.6 51 0.0       99.97 33   LegendNANA
17:00 28.1 15.0 45 0.0       99.95 32   LegendNANA
18:00 27.3 15.4 48 0.0       99.93 32   LegendNANA
19:00 27.2 13.5 43 0.0       99.95 30   LegendNANA
20:00 25.8 12.1 43 0.0       99.97 28   LegendNANA
21:00 23.5 11.3 46 0.0       100.04 25   LegendNANA
22:00 22.2 12.0 52 0.0       99.99     LegendNANA
23:00 22.0 12.0 53 0.0       99.94     LegendNANA

Notes on Data Quality.

Legend

  • E = Estimated
  • M = Missing
  • NA = Not Available*
  • [empty] = Indicates an unobserved value
Date modified: